Tracking 23441 objects as of 15-Jun-2021
HD Live streaming from Space Station
objects crossing your sky now

EDUSAT

Track EDUSAT now!
10-day predictions
EDUSAT is classified as:


NORAD ID: 37788
Int'l Code: 2011-044A
Perigee: 637.5 km
Apogee: 691.8 km
Inclination: 98.4 °
Period: 97.9 minutes
Semi major axis: 7035 km
RCS: 0.1421 m2 (medium)
Launch date: August 17, 2011
Source: Italy (IT)
Launch site: Orenburg, Russia (OREN)

EduSat is a microsatellite built by the University of Rome.
aabbcc
Your satellite tracking list
Your tracking list is empty




NASA's NSSDC Master Catalog

Two Line Element Set (TLE):
1 37788U 11044A   21166.10507323  .00000091  00000-0  23603-4 0  9998
2 37788  98.4268 340.2057 0038588 154.1420 325.2017 14.71113993527353
Source of the keplerian elements: AFSPC